Regional Weather Roundup
Issued by NWS Upton, NY

Current Version | Previous Version | Graphics & Text | Print | Product List | Glossary Off
Versions: 1 2 3 4 5 6 7 8 9 10 11 12 13 14 15 16 17 18 19 20 21 22 23 24 25 26 27

000
ASUS41 KOKX 231905
RWROKX

REGIONAL WEATHER ROUNDUP
NATIONAL WEATHER SERVICE NEW YORK NY
300 PM EDT THU OCT 23 2014

NOTE: "FAIR" INDICATES FEW OR NO CLOUDS BELOW 12,000 FEET WITH NO
SIGNIFICANT WEATHER AND/OR OBSTRUCTIONS TO VISIBILITY.

NYZ071-072-176-178-NJZ106-104-232000-
NEW YORK CITY METRO AREA


CITY           SKY/WX    TMP DP  RH WIND       PRES   REMARKS
CENTRAL PARK   LGT RAIN  51  47  86 N10G17    29.73S FOG
LAGUARDIA APRT RAIN      51  47  86 N17G25    29.70R FOG
KENNEDY INTL   LGT RAIN  52  46  80 N22G33    29.68F
NEWARK/LIBERTY LGT RAIN  54  50  86 N15       29.71S
BRNX BOT. GARD   N/A     50  46  87 NW8       29.69F
TETERBORO      LGT RAIN  52  47  83 N10G23    29.70S
$$

NYZ177-179-078>081-232000-
LONG ISLAND NEW YORK

CITY           SKY/WX    TMP DP  RH WIND       PRES   REMARKS
FARMINGDALE    CLOUDY    52  47  83 N16G29    29.65F
ISLIP          CLOUDY    52  48  86 N16       29.62S
SHIRLEY        CLOUDY    54  48  80 N17G24    29.62F
WESTHAMPTON    CLOUDY    55  49  80 NW12G24   29.61S
MONTAUK POINT    N/A     58  51  78 N14G22    29.57R
$$

NYZ052-065-067-232000-
HUDSON VALLEY

CITY           SKY/WX    TMP DP  RH WIND       PRES   REMARKS
WHITE PLAINS   PTSUNNY   50  45  83 NW22G32   29.67S
NEWBURGH       PTSUNNY   50  48  93 N12G23    29.74F
MONTGOMERY     CLOUDY    51  48  89 NE7       29.74S
POUGHKEEPSIE   CLOUDY    50  45  83 N13G26    29.74F
ALBANY         CLOUDY    49  44  83 N9G20     29.82F
$$

NJZ001-105-106-008-010-013-015-019>022-104-232000-
NEW JERSEY

CITY           SKY/WX    TMP DP  RH WIND       PRES   REMARKS
NEWARK/LIBERTY LGT RAIN  54  50  86 N15       29.71S
TETERBORO      LGT RAIN  52  47  83 N10G23    29.70S
CALDWELL       LGT RAIN  53  48  83 NE3       29.73S
MORRISTOWN     CLOUDY    55  50  82 N12G23    29.73S
SOMERVILLE     CLOUDY    55  45  68 NW13G23   29.72S
SUSSEX         CLOUDY    54  46  74 VRB7      29.75S
ANDOVER          N/A     50  45  83 N8G18     29.76R
TRENTON        LGT RAIN  52  47  83 NW10G20   29.74S
MILLVILLE      CLOUDY    56  46  69 NW16G24   29.76S
ATLANTIC CITY  CLOUDY    54  51  90 NW16      29.72F
WRIGHTSTOWN    CLOUDY    52  49  87 NW14G22   29.71S
TOMS RIVER     CLOUDY    52  48  87 NW10G16   29.71F
BELMAR         CLOUDY    52  46  82 NW16      29.70S
$$

PAZ047>061-062-071-232000-
EASTERN PENNSYLVANIA

CITY           SKY/WX    TMP DP  RH WIND       PRES   REMARKS
PHILADELPHIA   CLOUDY    55  44  66 NW25G35   29.77F
ALLENTOWN      CLOUDY    54  42  64 N16G25    29.79F
SCRANTON       RAIN      49  43  80 NE6G21    29.85R
$$

CTZ002-004>006-009-010-012-RIZ004-006-007-MAZ004-011-015-232000-
SOUTHERN NEW ENGLAND
 IN CT

CITY           SKY/WX    TMP DP  RH WIND       PRES   REMARKS
BRADLEY INTL   DRIZZLE   54  47  77 N16G23    29.65F
HARTFORD       CLOUDY    53  47  79 N10G22    29.65S
DANBURY        CLOUDY    50  42  74 N12G18    29.70F
WTRBRY/OXFORD  DRIZZLE   48  43  81 N9        29.67S FOG
BRIDGEPORT     CLOUDY    54  48  80 N16G25    29.63F
MERIDEN        CLOUDY    54  47  77 N18G24    29.64S
NEW HAVEN      CLOUDY    57  47  69 N10G28    29.62S
CHESTER        LGT RAIN  54  50  87 N15G21    29.61S
GROTON           N/A    N/A N/A N/A MISG      29.55F
WILLIMANTIC    CLOUDY    56  48  74 N14G21    29.61F

 IN RI

CITY           SKY/WX    TMP DP  RH WIND       PRES   REMARKS
PROVIDENCE     CLOUDY    57  51  80 N21G28    29.57S
BLOCK ISLAND   CLOUDY    57  52  82 N17G28    29.53S
WESTERLY       CLOUDY    57  51  80 N15G24    29.56S

 IN MA

CITY           SKY/WX    TMP DP  RH WIND       PRES   REMARKS
BOSTON         LGT RAIN  53  53 100 N32G40    29.58S FOG
WORCESTER      LGT RAIN  50  48  93 N17G28    29.63S VSB 1
WESTFIELD      CLOUDY    53  47  79 N20G28    29.66F
PROVINCETOWN   CLOUDY    59   3  10 NE16      29.52F
NANTUCKET      CLOUDY    62  57  83 NE16      29.46S
$$

ANZ330-335-338-340-345-350-353-355-232000-
COASTAL MARINE OBSERVATIONS


STATION/POSITION TIME  SKY/WX   TEMP    WIND        PRES    VSBY  WAVE
                                AIR SEA DIR/SP/G                  HT/PER
                 (UTC)          (F)     (DEG/KT/KT) (MB)    (MI)  (FT/S)
NY HARB ENTRANCE NOT AVBL
4S FIRE IS       1900               63                N/A           5/ 8
20S FIRE ISLAND  1900            54 64  340/ 23/ 29 1002.5          7/ 6
23SW MTP         1900                                 N/A           6/ 8
HUDSON CANYON    1900            57 67  330/ 23/ 27 1001.0         10/ 7
EXECUTION ROCKS  1900            52 62  350/ 16/ 21   N/A
WESTERN LI SOUND NOT AVBL
CENTRAL LI SOUND NOT AVBL
EASTERN LI SOUND 1800            58 63   10/ 19/ 27   N/A
ROBBINS REEF     1900            52     350/ 14/ 18 1004.6
$$


>>>>>>>>>>>>>>>>>>>>>>>>>>>> KEY <<<<<<<<<<<<<<<<<<<<<<<<<<<
>                                                          <
>     SKY/WX - SKY CONDITION/PRESENT WEATHER               <
>     TMP    - TEMPERATURE IN FAHRENHEIT                   <
>     DP     - DEWPOINT IN FAHRENHEIT                      <
>     RH     - RELATIVE HUMIDITY IN PERCENT                <
>     WIND   - DIRECTION AND SPEED IN MPH                  <
>     PRES   - MEAN SEA LEVEL PRESSURE IN INCHES OF HG     <
>     WCI    - WIND CHILL INDEX                            <
>     VSB    - VISIBILITY IN MILES                         <
>     HX     - HEAT INDEX                                  <
>     TC     - TEMPERATURE IN CELSIUS                      <
>     VRB    - VARIABLE WIND DIRECTION                     <
>                                                          <
>>>>>>>>>>>>>>>>>>>>>>>>>>>> KEY <<<<<<<<<<<<<<<<<<<<<<<<<<<





USA.gov is the U.S. government's official web portal to all federal, state and local government web resources and services.